Flag for Germany Weather past 2 weeks in Gera, Thuringia, Germany

Now
65 °F

Overcast.


Feels Like: 65 °F
Forecast: 51 / 65 °F
Wind: 6 mph from Southwest

Location: Gera-Leumnitz

Current Time: Aug 22, 2014 at 7:44:31 PM

Latest Report: Aug 22, 2014 at 7:00 PM


Visibility: 44 mi

Pressure: 29.90 "Hg

Humidity: 36%

Dew point: 38 °F

Location of GeraLocation

Historic Weather in Gera — Graph

°F

Gera temperature yesterday

Maximum temperature yesterday: 65 °F (at 3:00 PM)
Minimum temperature yesterday: 46 °F (at 6:00 AM)
Average temperature yesterday: 56 °F

Past Weeks' High & Low Weather Summary

 TemperatureHumidityPressure
High83 °F (Aug 10, 5:00 PM)98% (Aug 8, 6:00 AM)30.06 "Hg (Aug 8, 6:00 AM)
Low46 °F (Aug 20, 6:00 AM)32% (Aug 22, 5:00 PM)29.65 "Hg (Aug 13, 5:00 PM)
Average61 °F71%29.89 "Hg
* Reported Aug 7 6:00 PM — Aug 22 6:00 PM, Gera, Weather by CustomWeather, © 2014

Note: Actual official high and low records may vary slightly from our data, if they occured in-between our weather recording intervals... More about our weather records

Advertising

Gera weather history for previous 24 hours

 ConditionsComfort  
Time TempWeatherWind HumidityBarometerVisibility
6:00 PM
Aug 22
65 °FOvercast.6 mph35%29.91 "Hg43 mi
5:00 PM67 °FOvercast.7 mph32%29.91 "Hg40 mi
4:00 PM65 °FPartly sunny.7 mph38%29.93 "Hg40 mi
3:00 PM65 °FOvercast.5 mph38%29.93 "Hg40 mi
2:00 PM65 °FOvercast.7 mph36%29.94 "Hg40 mi
1:00 PM65 °FOvercast.7 mph39%29.95 "Hg40 mi
12:00 PM65 °FOvercast.8 mph41%29.96 "Hg40 mi
11:00 AM63 °FOvercast.8 mph39%29.97 "Hg37 mi
10:00 AM59 °FPartly sunny.3 mph65%29.98 "Hg34 mi
9:00 AM53 °FOvercast.5 mph77%29.99 "Hg25 mi
8:00 AM49 °FOvercast.5 mph84%30.00 "Hg22 mi
7:00 AM48 °FPartly sunny.6 mph85%30.01 "Hg22 mi
6:00 AM46 °FPassing clouds.5 mph89%30.01 "Hg17 mi
5:00 AM47 °FPassing clouds.5 mph88%30.01 "Hg18 mi
4:00 AM47 °FClear.5 mph87%30.01 "Hg17 mi
3:00 AM48 °FClear.3 mph86%30.02 "Hg19 mi
2:00 AM49 °FPassing clouds.3 mph86%30.03 "Hg19 mi
1:00 AM50 °FPassing clouds.3 mph87%30.03 "Hg12 mi
12:00 AM52 °FPassing clouds.3 mph79%30.03 "Hg19 mi
11:00 PM
Aug 21
54 °FClear.3 mph73%30.02 "Hg25 mi
10:00 PM59 °FPassing clouds.1 mph62%30.01 "Hg37 mi
9:00 PM60 °FOvercast.1 mph53%30.00 "Hg40 mi
8:00 PM62 °FPassing clouds.2 mph50%29.99 "Hg43 mi
7:00 PM64 °FSunny.2 mph46%29.99 "Hg43 mi
Weather by CustomWeather, © 2014

See weather overviewHow to use our weather pages